This is the latest recevied weather packets stored in our database for station/object WA2GUG. If no packets are shown the sender has not sent any weather packets the latest 1 day(s).
| Time | Temp. | Humidity | Pressure | Rain* | Wind** | Luminosity | Snow |
|---|---|---|---|---|---|---|---|
| 1778082263 | 15.56° C | 99% | 1005 hPa | - | - | - | - |
| 1778081963 | 15° C | 99% | 1005 hPa | - | - | - | - |
| 1778081663 | 15° C | 99% | 1005 hPa | - | - | - | - |
| 1778081363 | 15° C | 99% | 1005 hPa | - | - | - | - |
| 1778081063 | 15° C | 99% | 1004.2 hPa | - | - | - | - |
| 1778080763 | 15° C | 99% | 1005 hPa | - | - | - | - |
| 1778078063 | 13.89° C | 99% | 1005 hPa | - | - | - | - |
| 1778075963 | 14.44° C | 99% | 1005.1 hPa | - | - | - | - |
| 1778074463 | 16.67° C | 99% | 1005 hPa | - | - | - | - |
| 1778069062 | 12.78° C | 99% | 1006 hPa | - | - | - | - |
| 1778068162 | 12.78° C | 99% | 1006 hPa | - | - | - | - |
| 1778066062 | 12.22° C | 99% | 1005 hPa | - | - | - | - |
| 1778063962 | 11.11° C | 99% | 1005 hPa | - | - | - | - |
| 1778063062 | 11.11° C | 99% | 1005 hPa | - | - | - | - |
| 1778061562 | 10.56° C | 99% | 1005 hPa | - | - | - | - |
| 1778061262 | 10.56° C | 99% | 1005 hPa | - | - | - | - |
| 1778060962 | 10.56° C | 99% | 1005 hPa | - | - | - | - |
| 1778060662 | 10.56° C | 99% | 1005 hPa | - | - | - | - |
| 1778060362 | 10.56° C | 99% | 1005 hPa | - | - | - | - |
| 1778059762 | 10.56° C | 99% | 1005 hPa | - | - | - | - |
| 1778059462 | 10.56° C | 99% | 1005 hPa | - | - | - | - |
| 1778059162 | 10.56° C | 99% | 1005 hPa | - | - | - | - |
| 1778058862 | 10.56° C | 99% | 1005 hPa | - | - | - | - |
| 1778058262 | 10.56° C | 99% | 1005 hPa | - | - | - | - |
| 1778057962 | 10.56° C | 99% | 1005 hPa | - | - | - | - |
* Rain since midnight (hover to see other rain measurements)
** Current wind speed in m/s (hover to see current wind gust speed)